Theta_e
319 320 321 322 323 323 323 323 323 322 321 317 310 309 309 307 305 306 305 305 303 307 308 301 303 299 305 308 308 308 307 306 306 308 309 310 314 316 318 317 317 322 321 322 323 325 324
319 316 317 319 321 322 323 323 323 323 322 318 311 309 308 306 305 306 305 305 303 306 307 303 301 299 306 307 307 307 307 306 306 308 308 308 314 315 316 317 315 321 322 322 323 324 324
323 320 318 315 317 321 322 321 322 324 322 319 312 308 308 305 305 304 304 305 303 305 305 301 299 299 303 303 307 306 307 306 307 307 309 308 311 314 316 317 318 321 322 321 323 323 325
322 322 321 319 316 318 322 321 322 323 322 319 312 307 304 306 305 304 304 304 301 303 303 300 299 302 304 306 306 306 305 306 307 308 309 309 310 311 314 317 319 320 319 322 316 322 323
320 321 322 321 319 316 321 321 322 323 322 320 312 305 303 306 304 304 304 301 302 302 301 299 301 305 305 306 306 306 306 305 306 308 308 308 309 311 316 318 320 319 318 320 316 318 322
314 317 320 320 320 318 319 321 321 323 322 319 311 304 302 304 304 303 302 302 301 301 304 304 304 304 304 305 306 306 307 307 307 308 308 309 309 312 315 318 320 319 317 316 316 320 319
307 311 314 319 318 320 319 321 321 323 322 319 309 302 301 302 303 302 302 307 308 306 304 304 304 305 304 304 306 307 307 306 307 308 308 309 311 314 313 315 315 316 317 318 318 320 321
301 303 311 312 315 320 319 322 321 322 321 318 308 301 301 301 301 299 303 306 305 305 306 305 304 303 305 306 306 307 307 308 308 310 308 309 312 311 311 314 316 317 316 317 319 319 319
302 301 301 307 311 314 319 321 321 321 320 318 307 301 300 300 304 303 306 305 305 304 306 307 306 306 306 306 306 308 307 307 309 309 309 310 310 311 313 316 318 317 316 317 318 319 320
302 301 302 298 302 310 317 320 321 320 321 316 304 301 299 302 305 304 305 305 303 303 298 303 307 307 306 307 308 308 308 308 308 310 311 312 312 312 314 316 315 318 316 319 319 321 321
300 301 301 301 299 306 314 318 319 320 319 312 302 299 301 303 305 306 305 304 302 306 297 302 306 305 307 309 308 310 308 308 309 310 312 312 314 314 314 316 315 316 315 319 320 320 321
300 301 300 301 302 305 311 315 318 321 318 306 301 302 302 304 305 306 305 303 306 298 296 301 306 307 308 309 309 307 309 310 311 311 312 313 313 312 316 315 315 315 314 315 317 318 321
298 301 299 301 302 303 309 313 316 321 316 305 300 306 305 304 305 303 303 306 300 297 302 303 307 307 308 309 310 310 311 312 311 311 313 313 312 314 315 315 315 315 315 317 319 319 319
298 299 299 301 304 304 308 311 316 320 315 302 306 306 305 306 303 303 306 305 298 303 303 305 307 307 309 309 310 309 309 312 312 312 311 315 316 315 314 314 315 314 313 315 319 316 315
298 299 298 300 303 309 309 310 315 319 311 302 305 305 305 306 303 305 307 302 303 302 305 307 308 309 309 309 310 310 310 313 313 311 313 314 316 314 314 313 313 314 314 312 312 309 310
298 298 298 299 303 306 308 310 315 317 306 305 305 305 304 304 304 307 306 310 308 307 308 308 309 308 309 309 310 311 311 311 312 312 311 312 315 314 314 313 312 311 311 312 310 311 315
299 299 298 299 302 306 309 313 314 315 304 306 306 306 305 304 306 308 305 310 310 309 309 309 308 309 309 308 309 312 311 311 312 312 311 311 311 314 311 314 314 312 312 312 310 311 312
299 299 299 299 304 304 307 313 313 311 304 306 307 304 305 305 306 308 309 311 310 309 309 309 309 310 309 308 310 312 313 312 312 311 312 311 311 313 314 312 313 314 314 311 308 311 308
299 299 299 298 303 303 306 308 311 306 304 306 307 306 305 306 308 308 310 312 311 310 310 310 310 310 310 311 311 312 312 312 313 311 312 311 310 306 310 310 312 315 314 313 312 310 312
299 299 298 298 302 305 306 308 305 307 305 306 306 306 306 306 306 308 310 312 312 311 311 311 311 310 310 310 309 312 313 313 312 310 311 310 309 308 309 310 312 313 314 313 311 310 312
299 299 298 299 302 304 308 308 307 303 306 308 306 303 306 306 306 305 308 309 311 311 310 310 310 311 311 310 310 311 312 313 311 311 311 309 308 306 310 311 312 312 313 312 311 311 313
299 298 298 299 301 301 310 309 307 304 308 307 307 305 305 303 306 305 309 309 310 311 309 310 310 310 309 310 309 310 311 311 311 310 310 307 306 307 305 308 308 311 311 311 312 311 312
298 298 299 299 301 302 303 307 307 306 307 307 308 307 307 305 303 306 309 310 311 309 309 309 310 309 309 308 308 309 310 310 310 310 309 308 305 303 308 305 306 308 308 310 311 310 311
298 299 298 300 301 306 305 307 304 305 306 307 308 308 307 305 305 307 309 310 310 310 309 307 310 308 310 308 309 310 309 308 308 306 309 308 305 301 300 303 305 305 305 307 308 306 305
299 299 298 300 301 305 307 306 304 304 307 305 307 308 308 303 305 308 309 307 307 307 306 306 306 307 309 309 306 307 306 308 308 305 306 307 306 304 304 303 305 307 307 307 308 304 300
299 298 298 301 300 302 304 304 303 302 306 304 306 306 307 304 300 302 308 308 305 304 304 304 307 308 309 306 307 308 308 307 309 309 306 304 304 304 305 307 308 306 305 305 306 307 300
299 298 298 301 305 306 304 304 302 302 306 306 302 305 306 300 298 302 305 306 307 304 302 304 307 308 309 305 307 308 306 306 308 308 307 306 305 305 305 304 305 303 303 305 306 304 300
299 298 299 301 305 306 305 305 302 301 301 305 303 304 304 300 297 300 303 305 305 305 303 304 306 307 306 306 307 305 305 305 306 305 305 306 304 305 305 308 309 302 303 307 301 300 300
299 297 300 302 302 304 305 304 302 299 300 301 300 303 304 304 297 298 300 302 303 304 304 303 304 305 305 304 304 302 305 302 303 307 304 307 304 305 304 305 300 301 302 301 301 301 300
Wind_Speed
27 28 28 26 26 27 25 32 36 33 27 22 20 17 18 17 18 18 16 16 11 10 11 10 10 7 3 3 8 8 10 13 10 4 8 6 6 8 8 5 12 5 12 14 12 4 8
28 28 28 29 27 27 28 28 35 36 31 23 20 17 18 20 14 15 15 17 14 11 10 10 8 5 5 4 3 5 8 11 11 5 3 8 3 4 5 4 21 4 12 16 12 5 5
26 28 28 30 30 28 28 30 32 41 32 22 21 18 17 16 15 14 13 16 14 11 11 8 5 5 8 12 5 6 7 9 9 8 7 10 5 4 2 2 21 8 7 7 11 5 4
29 25 28 28 30 29 29 28 32 28 35 21 21 20 17 13 15 15 14 16 12 7 5 4 3 5 6 6 7 11 13 6 7 3 4 8 11 10 3 2 6 5 4 5 3 6 5
33 31 26 27 27 29 30 29 28 25 31 23 21 21 14 12 14 14 11 8 3 3 3 2 3 3 8 5 10 12 15 14 6 1 1 4 4 4 3 4 4 4 5 8 1 6 1
40 39 35 27 29 27 29 30 29 27 30 22 20 19 15 14 12 13 7 1 2 4 4 3 3 5 3 4 8 10 8 4 5 2 5 4 2 2 2 5 10 9 5 4 6 7 4
39 41 42 38 28 29 26 30 30 27 26 21 20 19 15 11 11 9 2 4 3 2 5 4 3 7 10 8 7 5 3 5 4 3 2 3 3 4 3 10 4 10 9 8 10 10 5
34 36 43 43 38 30 27 28 29 29 26 19 19 17 14 10 8 2 9 5 3 1 2 6 5 7 9 4 5 4 1 2 4 3 5 4 4 5 7 14 12 9 12 6 7 12 5
39 37 36 43 45 35 27 27 30 30 27 17 18 15 11 5 3 6 10 6 3 0 1 2 4 5 3 5 3 4 1 3 0 5 5 5 4 7 4 3 13 9 12 9 8 6 2
40 39 39 34 45 38 32 27 32 30 29 17 14 11 7 5 6 11 5 5 4 2 4 5 2 2 2 2 2 2 4 3 3 4 7 1 8 9 4 1 4 5 4 5 16 10 4
42 44 44 41 38 39 30 29 35 29 29 13 11 10 3 11 11 8 6 4 5 2 4 4 5 5 4 3 4 1 5 1 5 4 4 3 10 8 5 2 3 3 7 5 12 7 2
41 41 46 42 36 38 33 32 32 30 27 9 10 8 7 15 14 8 8 8 6 5 3 5 3 4 2 1 2 2 2 4 5 5 8 6 4 3 2 4 3 6 9 11 5 3 2
43 43 48 42 41 39 33 28 33 31 24 9 10 9 11 14 10 12 12 8 4 4 2 3 2 2 2 4 3 3 0 2 2 3 5 3 2 4 1 6 4 2 7 3 2 0 2
43 44 52 41 39 38 36 33 41 32 21 12 13 13 17 13 15 15 11 3 5 4 5 2 3 3 1 1 4 5 2 4 5 5 3 2 3 3 5 3 6 8 4 4 4 5 4
45 45 48 45 35 29 30 31 47 34 20 19 18 15 15 15 18 14 5 2 7 6 4 4 1 1 1 2 3 1 5 2 2 1 4 4 4 3 2 3 1 3 3 3 6 4 4
42 44 46 54 44 27 26 31 48 33 24 26 22 17 14 17 16 11 2 3 4 4 3 2 3 4 2 2 2 2 3 3 2 2 1 2 5 5 5 2 3 5 4 2 3 3 3
41 40 44 47 43 26 26 31 47 32 29 29 24 10 15 16 14 5 3 3 3 4 3 3 4 1 2 4 3 2 2 3 3 4 3 3 4 4 3 5 3 5 3 5 4 2 3
41 40 41 43 39 30 27 35 41 31 36 31 18 3 19 16 4 5 3 3 6 5 3 2 3 2 3 3 3 3 3 1 1 2 3 2 4 4 2 4 3 1 1 3 4 1 2
39 40 42 39 39 32 16 36 38 37 44 39 19 6 13 15 3 3 2 4 4 4 4 5 4 3 1 3 5 6 2 4 3 4 2 1 3 3 6 5 2 2 2 3 4 3 1
38 38 39 37 43 26 21 33 36 38 38 32 11 4 6 9 7 3 4 3 4 6 4 4 3 1 0 4 5 4 3 2 4 3 3 3 3 4 5 5 3 3 4 3 4 3 3
37 37 37 35 41 25 22 40 36 43 44 29 8 5 8 7 6 4 4 6 4 4 1 4 1 2 2 3 4 3 3 3 6 5 3 3 3 3 3 4 2 3 4 6 6 4 4
34 36 34 34 40 22 13 30 40 46 36 24 10 6 9 9 6 6 4 7 7 3 4 3 2 1 4 4 3 6 5 2 2 3 2 3 1 3 4 6 6 2 2 3 2 3 2
33 33 32 32 38 24 16 44 38 50 38 20 10 9 9 9 5 5 5 7 7 8 3 1 9 5 6 2 4 9 8 6 5 5 2 3 3 3 1 4 4 4 3 1 0 3 1
31 30 30 30 28 20 18 41 41 49 40 15 14 13 5 3 4 5 6 5 9 4 6 3 9 6 5 9 16 16 16 13 11 6 4 4 3 2 1 4 3 4 4 2 10 6 7
28 27 27 30 24 18 25 38 39 48 35 12 16 6 4 3 3 3 9 7 13 11 4 5 4 8 15 9 5 4 4 4 4 5 5 4 4 3 3 2 4 2 2 1 1 1 4
24 31 25 27 22 16 10 29 37 44 36 12 15 6 3 10 2 4 3 15 5 3 3 3 9 12 5 3 2 3 4 3 2 1 3 5 5 4 2 3 6 4 2 3 2 3 1
22 28 23 24 17 14 17 31 32 37 39 21 7 7 4 9 4 5 2 5 8 5 4 3 4 3 1 2 2 2 1 3 4 6 4 2 1 4 2 2 4 4 3 2 4 4 6
19 24 18 13 6 3 22 30 29 30 28 34 15 10 5 8 11 6 7 7 8 6 5 8 5 1 2 2 2 3 3 4 3 4 5 5 5 3 1 1 6 2 2 5 4 6 2
19 17 16 13 13 11 25 26 27 31 27 26 16 12 8 9 12 17 16 12 10 8 10 7 2 3 3 3 1 2 2 1 3 3 1 2 5 4 6 3 1 2 6 9 7 3 3
Wind_Direction
308 309 311 310 312 312 310 309 303 300 304 313 318 317 308 311 310 309 320 314 311 265 301 287 304 311 322 271 270 306 326 337 330 249 259 238 273 214 198 190 205 220 159 178 260 2 38
304 306 306 307 308 309 311 312 303 296 296 304 316 312 303 307 309 301 305 305 305 259 281 300 292 289 278 273 279 296 319 322 333 322 255 237 311 234 270 205 181 166 132 179 230 278 349
308 299 303 305 306 307 309 312 308 294 288 298 316 310 297 309 314 304 294 294 298 260 265 291 279 283 267 264 243 282 279 318 316 322 204 233 301 34 23 261 168 192 121 66 200 212 318
298 307 297 301 304 304 305 308 312 307 282 297 313 312 306 309 308 305 294 291 297 250 251 268 251 281 262 284 270 281 286 281 299 322 197 233 242 326 263 324 92 97 93 138 343 210 15
294 295 300 290 295 301 302 304 307 301 282 296 308 312 311 303 303 304 304 308 256 222 203 223 213 274 283 288 276 299 301 245 262 206 196 249 217 313 259 164 134 79 122 172 31 343 238
290 289 290 299 289 293 298 301 303 305 280 289 305 309 312 299 294 291 314 145 141 153 154 153 207 304 285 299 306 325 320 197 201 168 97 133 97 344 294 198 187 155 133 110 120 187 62
291 285 286 288 296 285 291 299 301 302 285 288 302 307 316 309 296 310 187 143 148 121 194 227 232 261 298 313 306 286 286 194 191 167 137 117 178 181 224 279 155 136 149 131 154 153 114
327 308 281 289 293 289 282 293 295 294 281 284 297 306 313 311 310 239 168 164 137 155 293 247 282 268 300 250 292 305 133 148 170 151 130 130 196 127 271 254 141 106 126 102 97 145 183
328 323 317 277 284 289 283 292 284 286 275 278 290 304 307 324 126 159 153 161 153 249 25 302 286 292 264 270 291 314 216 126 344 156 175 174 201 123 273 260 114 141 161 168 153 164 131
325 325 319 308 288 290 284 288 277 281 268 267 289 291 296 164 159 151 179 171 150 183 69 300 327 289 243 266 259 243 186 184 134 152 178 105 147 151 266 163 129 126 192 154 153 154 173
322 321 319 309 294 278 281 276 269 275 258 258 281 271 251 171 160 162 156 165 167 192 56 283 297 289 210 192 320 51 153 128 141 176 203 152 147 128 209 220 120 144 131 117 123 81 95
322 321 321 308 292 285 292 279 260 263 245 237 252 237 173 165 167 179 177 163 145 44 273 332 271 271 217 120 143 178 215 210 102 53 47 68 47 96 277 104 91 99 81 40 50 59 95
324 319 319 306 298 286 281 282 257 251 233 204 222 180 158 162 178 160 158 149 47 114 254 278 267 288 55 28 6 32 300 186 124 89 81 50 35 260 26 82 62 103 105 88 95 66 170
319 317 317 316 302 281 281 304 232 243 216 183 171 154 157 158 165 157 157 98 85 205 200 210 273 302 90 153 5 351 31 63 51 80 91 73 104 11 347 137 171 164 118 142 137 170 146
316 318 320 325 316 284 274 299 222 229 188 165 160 142 169 174 164 165 185 87 187 206 190 166 155 270 339 152 124 10 16 37 30 315 96 121 50 328 239 358 54 171 87 172 103 352 74
314 316 319 319 319 313 287 277 217 214 168 163 155 148 154 162 163 172 181 179 165 156 138 149 195 200 124 171 101 72 357 291 339 65 224 178 81 357 301 3 11 113 158 99 17 111 154
315 315 315 317 327 318 310 206 212 197 158 155 146 145 162 166 171 204 185 183 138 165 134 158 191 170 216 166 145 94 271 313 5 325 3 115 78 310 8 24 2 8 21 55 105 96 141
316 316 316 322 329 322 347 207 203 174 152 156 143 120 165 168 144 222 174 184 139 163 156 158 175 187 177 173 95 102 132 284 294 11 47 33 101 76 76 294 261 254 92 101 107 252 52
316 316 318 324 326 319 303 196 184 164 163 156 132 115 166 177 187 213 187 151 147 136 181 179 211 225 183 142 104 124 112 5 87 48 83 18 39 66 358 349 4 238 195 105 93 52 310
316 318 319 323 324 302 257 198 182 171 164 156 146 132 156 199 241 243 136 180 139 170 164 185 171 136 124 46 29 111 122 28 66 80 85 104 104 150 178 206 132 182 175 109 111 110 180
316 319 317 321 319 319 240 208 204 175 161 160 161 167 172 182 217 213 157 167 134 149 202 158 124 197 103 112 73 92 77 84 36 7 41 79 108 85 54 44 96 196 173 168 188 160 158
315 316 316 316 318 330 218 220 197 174 167 169 150 149 165 162 176 158 207 191 158 140 134 226 161 50 128 150 177 159 131 139 158 29 63 26 91 85 6 26 45 33 17 217 215 159 233
313 314 315 316 315 296 286 197 184 168 178 179 190 154 151 154 139 152 191 149 167 126 44 63 150 101 80 62 92 124 109 95 153 135 99 73 110 64 338 348 10 358 317 245 65 63 273
310 311 313 314 313 307 238 193 178 176 183 177 166 156 122 155 139 177 155 126 143 141 131 54 111 103 143 110 100 85 78 74 77 48 96 113 92 87 151 18 23 262 331 62 106 48 33
306 306 311 310 316 349 191 190 179 182 180 171 163 149 119 104 112 95 125 111 97 90 77 82 68 121 141 116 73 62 359 27 6 17 44 98 104 80 118 162 274 240 25 118 169 69 358
304 303 311 312 307 302 196 193 187 186 186 161 169 147 113 119 356 121 111 133 126 106 43 55 112 135 129 93 100 139 186 167 194 13 28 76 86 115 180 165 210 197 195 344 129 263 146
298 300 305 309 292 260 227 196 190 190 196 194 175 191 135 103 47 128 141 137 126 103 103 121 135 128 115 89 110 148 233 145 157 167 162 99 61 150 182 210 283 210 260 323 106 247 151
289 296 310 353 25 255 189 188 184 188 197 203 207 197 171 104 60 111 128 126 129 139 137 157 100 329 63 94 131 196 131 223 116 168 173 166 153 188 133 168 269 104 81 162 158 112 107
283 292 295 310 19 195 188 193 181 185 189 181 183 182 161 115 112 97 97 106 120 123 127 142 124 125 151 103 100 108 121 89 146 199 62 187 184 181 179 213 55 108 142 134 162 170 264